Jacksonville, FL

4:38 PM EDT on October 01, 2016 (GMT -0400)
Cecil

Weather History for KVQQ - November, 2013

Change the Weather History Date:

Friday, November 29, 2013

  Actual Average (KJAX) Record (KJAX)
Temperature  
Mean Temperature 52 °F 59 °F  
Max Temperature 64 °F 70 °F 85 °F (1978)
Min Temperature 39 °F 47 °F 30 °F (1959)
Degree Days  
Heating Degree Days 14 7  
Month to date heating degree days 138  
Since 1 July heating degree days 166  
Cooling Degree Days 0 1  
Month to date cooling degree days 58  
Year to date cooling degree days 2641  
Growing Degree Days 2 (Base 50)    
Moisture  
Dew Point 41 °F    
Average Humidity 77    
Maximum Humidity 87    
Minimum Humidity 49    
Precipitation  
Precipitation 0.00 in 0.08 in 2.24 in (1914)
Month to date precipitation 2.03  
Year to date precipitation 49.51  
Snow  
Snow 0.00 in 0.00 in 0.00 in (2001)
Month to date snowfall 0.0  
Since 1 July snowfall 0.0  
Since 1 September snowfall 0.0  
Snow Depth -    
Sea Level Pressure  
Sea Level Pressure 30.42 in    
Wind  
Wind Speed 7 mph (North)    
Max Wind Speed 14 mph    
Max Gust Speed -    
Visibility 10 miles    
Events      
T = Trace of Precipitation, MM = Missing Value Source: NWS Daily Summary

Daily Weather History Graph

Daily Weather History Graph

Search for Another Location

Airport or City:

Trip Planner

Search our weather history database for the weather conditions in past years. The results will help you decide how hot, cold, wet, or windy it might be!

Date:

Astronomy

Nov. 29, 2013 Rise Set
Actual Time 7:04 AM EST 5:26 PM EST
Civil Twilight 6:38 AM EST 5:52 PM EST
Nautical Twilight 6:09 AM EST 6:22 PM EST
Astronomical Twilight 5:40 AM EST 6:51 PM EST
Moon 3:22 AM EST (11/29) 2:58 PM EST (11/29)
Length of Visible Light 11h 14m
Length of Day
10h 22m
Waning Crescent, 14% of the Moon is Illuminated
Nov 29
Waning Crescent
Dec 2
New
Dec 9
First Quarter
Dec 17
Full
Dec 25
Last Quarter

Hourly Weather History & Observations

Time (EST) Temp. Windchill Dew Point Humidity Pressure Visibility Wind Dir Wind Speed Gust Speed Precip Events Conditions
12:15 AM 41.0 °F 36.4 °F 37.4 °F 87% 30.43 in 10.0 mi North 6.9 mph - N/A   Clear
12:35 AM 41.0 °F 37.1 °F 35.6 °F 81% 30.43 in 10.0 mi NNW 5.8 mph - N/A   Clear
12:55 AM 39.2 °F 34.2 °F 35.6 °F 87% 30.42 in 10.0 mi NNW 6.9 mph - N/A   Clear
1:15 AM 39.2 °F 35.0 °F 35.6 °F 87% 30.42 in 10.0 mi NNW 5.8 mph - N/A   Clear
1:35 AM 39.2 °F 35.0 °F 35.6 °F 87% 30.42 in 10.0 mi NNW 5.8 mph - N/A   Clear
1:55 AM 39.2 °F 35.0 °F 35.6 °F 87% 30.42 in 10.0 mi NNW 5.8 mph - N/A   Clear
2:15 AM 39.2 °F 35.0 °F 33.8 °F 81% 30.42 in 10.0 mi North 5.8 mph - N/A   Clear
2:35 AM 39.2 °F 35.0 °F 35.6 °F 87% 30.42 in 10.0 mi North 5.8 mph - N/A   Clear
2:55 AM 41.0 °F 37.1 °F 35.6 °F 81% 30.41 in 10.0 mi North 5.8 mph - N/A   Clear
3:15 AM 41.0 °F 36.4 °F 35.6 °F 81% 30.41 in 10.0 mi NNW 6.9 mph - N/A   Clear
3:35 AM 41.0 °F 37.1 °F 35.6 °F 81% 30.41 in 10.0 mi North 5.8 mph - N/A   Clear
3:55 AM 41.0 °F 38.0 °F 37.4 °F 87% 30.41 in 10.0 mi North 4.6 mph - N/A   Clear
4:15 AM 41.0 °F 39.0 °F 37.4 °F 87% 30.40 in 10.0 mi North 3.5 mph - N/A   Clear
4:35 AM 41.0 °F 36.4 °F 37.4 °F 87% 30.40 in 10.0 mi North 6.9 mph - N/A   Clear
4:55 AM 41.0 °F 36.4 °F 37.4 °F 87% 30.40 in 10.0 mi North 6.9 mph - N/A   Clear
5:15 AM 41.0 °F 38.0 °F 37.4 °F 87% 30.41 in 10.0 mi North 4.6 mph - N/A   Clear
5:35 AM 41.0 °F 37.1 °F 35.6 °F 81% 30.41 in 10.0 mi North 5.8 mph - N/A   Clear
5:55 AM 41.0 °F 38.0 °F 35.6 °F 81% 30.42 in 10.0 mi North 4.6 mph - N/A   Clear
6:15 AM 41.0 °F 37.1 °F 35.6 °F 81% 30.42 in 10.0 mi NNW 5.8 mph - N/A   Clear
6:35 AM 41.0 °F 37.1 °F 35.6 °F 81% 30.43 in 10.0 mi North 5.8 mph - N/A   Clear
6:50 AM 41.0 °F 35.2 °F 35.6 °F 81% 30.42 in 10.0 mi North 9.2 mph - N/A   Clear
7:50 AM 41.0 °F 38.0 °F 35.6 °F 81% 30.44 in 10.0 mi NNE 4.6 mph - N/A   Clear
8:50 AM 46.4 °F 41.9 °F 39.2 °F 76% 30.45 in 10.0 mi North 9.2 mph - N/A   Clear
9:50 AM 53.6 °F - 42.8 °F 67% 30.46 in 10.0 mi North 9.2 mph - N/A   Clear
10:50 AM 57.2 °F - 44.6 °F 63% 30.46 in 10.0 mi North 6.9 mph - N/A   Clear
11:50 AM 59.0 °F - 44.6 °F 59% 30.44 in 10.0 mi NNE 6.9 mph - N/A   Clear
12:50 PM 62.6 °F - 44.6 °F 52% 30.42 in 10.0 mi NNE 5.8 mph - N/A   Scattered Clouds
1:50 PM 64.4 °F - 46.4 °F 52% 30.39 in 10.0 mi NNE 8.1 mph - N/A   Clear
2:50 PM 64.4 °F - 44.6 °F 49% 30.38 in 10.0 mi NNE 11.5 mph - N/A   Clear
3:50 PM 62.6 °F - 46.4 °F 55% 30.37 in 10.0 mi NE 10.4 mph - N/A   Clear
4:50 PM 59.0 °F - 46.4 °F 63% 30.39 in 10.0 mi ENE 6.9 mph - N/A   Clear
5:50 PM 55.4 °F - 44.6 °F 67% 30.40 in 10.0 mi NE 5.8 mph - N/A   Scattered Clouds
6:50 PM 53.6 °F - 44.6 °F 72% 30.41 in 10.0 mi NNE 11.5 mph - N/A   Overcast
7:50 PM 53.6 °F - 44.6 °F 72% 30.42 in 10.0 mi North 13.8 mph - N/A   Overcast
8:15 PM 53.6 °F - 46.4 °F 77% 30.43 in 10.0 mi North 10.4 mph - N/A   Overcast
8:35 PM 53.6 °F - 46.4 °F 77% 30.44 in 10.0 mi NNE 10.4 mph - N/A   Overcast
8:55 PM 53.6 °F - 46.4 °F 77% 30.44 in 10.0 mi North 8.1 mph - N/A   Overcast
9:15 PM 53.6 °F - 46.4 °F 77% 30.44 in 10.0 mi North 6.9 mph - N/A   Overcast
9:35 PM 53.6 °F - 46.4 °F 77% 30.44 in 10.0 mi NNE 8.1 mph - N/A   Overcast
9:55 PM 53.6 °F - 46.4 °F 77% 30.44 in 10.0 mi NNE 6.9 mph - N/A   Overcast
10:15 PM 53.6 °F - 46.4 °F 77% 30.44 in 10.0 mi North 6.9 mph - N/A   Overcast
10:35 PM 53.6 °F - 46.4 °F 77% 30.43 in 10.0 mi North 6.9 mph - N/A   Mostly Cloudy
10:55 PM 53.6 °F - 46.4 °F 77% 30.43 in 10.0 mi North 8.1 mph - N/A   Mostly Cloudy
11:15 PM 53.6 °F - 46.4 °F 77% 30.43 in 10.0 mi North 9.2 mph - N/A   Mostly Cloudy
11:35 PM 53.6 °F - 46.4 °F 77% 30.42 in 10.0 mi NNE 10.4 mph - N/A   Mostly Cloudy
11:55 PM 51.8 °F - 46.4 °F 82% 30.41 in 9.0 mi North 9.2 mph - N/A   Mostly Cloudy